Location: Holiday Acres Laynes 2 Mobile Home Park
(26.7249°N, 81.8671°W)
Time: 12:45:26
(UTC+00:00)

SKYMED 2 - Pass Details

Date: 25 November 2020
Orbit: 621 x 623 km, 97.9° (Epoch: 24 January)

Event Time Altitude Azimuth Distance (km) Brightness Sun altitude
Rises 22:57:11 0° 21° (NNE) 2,901 6.6 -5.6°
Reaches altitude 10° 22:59:29 10° 29° (NNE) 1,992 5.7 -6.1°
Maximum altitude 23:03:34 40° 99° (E) 911 4.0 -6.9°
Drops below altitude 10° 23:07:38 10° 170° (S) 1,982 6.3 -7.8°
Sets 23:09:55 0° 177° (S) 2,884 7.2 -8.2°
